This is the latest recevied weather packets stored in our database for station/object K5GHS-1. If no packets are shown the sender has not sent any weather packets the latest 10 day(s).
| Time | Temp. | Humidity | Pressure | Rain* | Wind** | Luminosity | Snow |
|---|---|---|---|---|---|---|---|
| 1777855592 | 25° C | 36% | 1013.3 hPa | 0 mm | - | 5 W/m² | - |
| 1777855289 | 25° C | 36% | 1013.4 hPa | 0 mm | - | 10 W/m² | - |
| 1777854985 | 25° C | 35% | 1013.6 hPa | 0 mm | - | 11 W/m² | - |
| 1777854682 | 25.56° C | 36% | 1013.4 hPa | 0 mm | - | 13 W/m² | - |
| 1777854379 | 25.56° C | 35% | 1013.4 hPa | 0 mm | - | 17 W/m² | - |
| 1777854076 | 25.56° C | 35% | 1013.5 hPa | 0 mm | - | 20 W/m² | - |
| 1777853774 | 25.56° C | 35% | 1013.5 hPa | 0 mm | - | 22 W/m² | - |
| 1777853469 | 25.56° C | 35% | 1013.6 hPa | 0 mm | - | 29 W/m² | - |
| 1777853167 | 26.11° C | 34% | 1013.6 hPa | 0 mm | - | 27 W/m² | - |
| 1777852864 | 26.11° C | 33% | 1013.7 hPa | 0 mm | - | 28 W/m² | - |
| 1777852563 | 26.11° C | 33% | 1013.7 hPa | 0 mm | - | 27 W/m² | - |
| 1777852259 | 26.11° C | 34% | 1013.8 hPa | 0 mm | - | 31 W/m² | - |
| 1777851957 | 26.11° C | 33% | 1013.7 hPa | 0 mm | - | 36 W/m² | - |
| 1777851654 | 26.67° C | 33% | 1013.7 hPa | 0 mm | - | 32 W/m² | - |
| 1777851345 | 26.67° C | 31% | 1013.9 hPa | 0 mm | - | 33 W/m² | - |
| 1777851041 | 26.67° C | 31% | 1014 hPa | 0 mm | - | 35 W/m² | - |
| 1777850739 | 27.22° C | 31% | 1013.8 hPa | 0 mm | - | 37 W/m² | - |
| 1777850436 | 27.78° C | 31% | 1013.9 hPa | 0 mm | - | 38 W/m² | - |
| 1777850134 | 28.33° C | 30% | 1014 hPa | 0 mm | - | 196 W/m² | - |
| 1777849830 | 28.33° C | 31% | 1013.8 hPa | 0 mm | - | 236 W/m² | - |
| 1777849527 | 28.33° C | 30% | 1013.9 hPa | 0 mm | - | 229 W/m² | - |
| 1777849225 | 28.33° C | 29% | 1014.1 hPa | 0 mm | - | 256 W/m² | - |
| 1777848921 | 28.89° C | 29% | 1014 hPa | 0 mm | - | 279 W/m² | - |
| 1777848616 | 27.78° C | 30% | 1014.1 hPa | 0 mm | - | 269 W/m² | - |
| 1777848314 | 28.33° C | 29% | 1014.1 hPa | 0 mm | - | 153 W/m² | - |
* Rain latest hour (hover to see other rain measurements)
** Current wind speed in m/s (hover to see current wind gust speed)